Weather History for Clinton, IA

Change the Weather History Date:

Thursday, September 25, 2014

  Actual Average Record
Temperature  
Mean Temperature 66 °F -  
Max Temperature 78 °F 71 °F 88 °F (1986)
Min Temperature 53 °F 49 °F 33 °F (2001)
Growing Degree Days 16 (Base 50)    
Moisture  
Dew Point 52 °F    
Average Humidity 70    
Maximum Humidity 94    
Minimum Humidity 34    
Precipitation  
Precipitation 0.00 in - - ()
Sea Level Pressure  
Sea Level Pressure 30.26 in    
Wind  
Wind Speed 5 mph (East)    
Max Wind Speed 10 mph    
Max Gust Speed -    
Visibility 10 miles    
Events      
Averages and records for this station are not official NWS values.
T = Trace of Precipitation, MM = Missing Value Source: NWS Daily Summary

Daily Weather History Graph

Daily Weather History Graph

Search for Another Location

Airport:

Trip Planner

Search our weather history database for the weather conditions in past years. The results will help you decide how hot, cold, wet, or windy it might be!

Date:

Astronomy

Sep. 25, 2014 Rise Set
Actual Time 6:51 AM CDT 6:53 PM CDT
Civil Twilight 6:24 AM CDT 7:21 PM CDT
Nautical Twilight 5:51 AM CDT 7:53 PM CDT
Astronomical Twilight 5:18 AM CDT 8:26 PM CDT
Moon 8:11 AM CDT (9/25) 7:35 PM CDT (9/25)
Length of Visible Light 12h 56m
Length of Day
12h 01m
New Moon, 2% of the Moon is Illuminated
Sep 25
New Moon
Oct 1
First Quarter
Oct 8
Full
Oct 15
Last Quarter
Oct 23
New

Hourly Weather History & Observations

Time (CDT) Temp. Dew Point Humidity Pressure Visibility Wind Dir Wind Speed Gust Speed Precip Events Conditions
12:15 AM 57.2 °F 53.6 °F 88% 30.26 in 10.0 mi East 5.8 mph - N/A   Clear
12:35 AM 55.4 °F 51.8 °F 88% 30.26 in 10.0 mi East 5.8 mph - N/A   Clear
12:55 AM 55.4 °F 51.8 °F 88% 30.26 in 10.0 mi ENE 5.8 mph - N/A   Clear
1:15 AM 53.6 °F 50.0 °F 88% 30.27 in 10.0 mi East 5.8 mph - N/A   Clear
1:35 AM 55.4 °F 51.8 °F 88% 30.27 in 10.0 mi East 6.9 mph - N/A   Clear
1:55 AM 53.6 °F 51.8 °F 94% 30.27 in 10.0 mi East 5.8 mph - N/A   Clear
2:15 AM 55.4 °F 51.8 °F 88% 30.27 in 10.0 mi East 5.8 mph - N/A   Clear
2:35 AM 55.4 °F 51.8 °F 88% 30.26 in 10.0 mi East 3.5 mph - N/A   Clear
2:55 AM 55.4 °F 51.8 °F 88% 30.26 in 10.0 mi ENE 4.6 mph - N/A   Clear
3:15 AM 55.4 °F 51.8 °F 88% 30.26 in 10.0 mi East 4.6 mph - N/A   Clear
3:35 AM 55.4 °F 51.8 °F 88% 30.27 in 10.0 mi ENE 3.5 mph - N/A   Clear
3:55 AM 55.4 °F 51.8 °F 88% 30.26 in 10.0 mi East 4.6 mph - N/A   Clear
4:15 AM 55.4 °F 51.8 °F 88% 30.26 in 10.0 mi NE 4.6 mph - N/A   Partly Cloudy
4:35 AM 55.4 °F 51.8 °F 88% 30.26 in 10.0 mi ENE 4.6 mph - N/A   Mostly Cloudy
4:55 AM 55.4 °F 51.8 °F 88% 30.26 in 10.0 mi ENE 3.5 mph - N/A   Scattered Clouds
5:15 AM 55.4 °F 51.8 °F 88% 30.27 in 10.0 mi East 4.6 mph - N/A   Partly Cloudy
5:35 AM 55.4 °F 51.8 °F 88% 30.27 in 10.0 mi East 4.6 mph - N/A   Clear
5:55 AM 55.4 °F 51.8 °F 88% 30.27 in 10.0 mi ENE 3.5 mph - N/A   Clear
6:15 AM 55.4 °F 51.8 °F 88% 30.27 in 10.0 mi East 3.5 mph - N/A   Clear
6:35 AM 53.6 °F 51.8 °F 94% 30.28 in 10.0 mi Calm Calm - N/A   Clear
6:55 AM 53.6 °F 50.0 °F 88% 30.28 in 10.0 mi ESE 3.5 mph - N/A   Clear
7:15 AM 53.6 °F 50.0 °F 88% 30.29 in 10.0 mi Calm Calm - N/A   Clear
7:35 AM 53.6 °F 50.0 °F 88% 30.29 in 10.0 mi North 5.8 mph - N/A   Clear
7:55 AM 55.4 °F 51.8 °F 88% 30.29 in 10.0 mi Calm Calm - N/A   Clear
8:15 AM 55.4 °F 51.8 °F 88% 30.29 in 10.0 mi East 4.6 mph - N/A   Clear
8:35 AM 57.2 °F 53.6 °F 88% 30.30 in 10.0 mi ENE 3.5 mph - N/A   Clear
8:55 AM 57.2 °F 53.6 °F 88% 30.30 in 10.0 mi ENE 3.5 mph - N/A   Clear
9:15 AM 60.8 °F 53.6 °F 77% 30.30 in 10.0 mi Calm Calm - N/A   Clear
9:35 AM 60.8 °F 55.4 °F 82% 30.31 in 10.0 mi NE 4.6 mph - N/A   Clear
9:55 AM 62.6 °F 53.6 °F 72% 30.31 in 10.0 mi Calm Calm - N/A   Clear
10:15 AM 66.2 °F 55.4 °F 68% 30.30 in 10.0 mi Calm Calm - N/A   Clear
10:35 AM 69.8 °F 53.6 °F 56% 30.30 in 10.0 mi Calm Calm - N/A   Clear
10:55 AM 71.6 °F 51.8 °F 50% 30.30 in 10.0 mi Calm Calm - N/A   Clear
11:15 AM 71.6 °F 51.8 °F 50% 30.29 in 10.0 mi Calm Calm - N/A   Clear
11:35 AM 71.6 °F 53.6 °F 53% 30.29 in 10.0 mi SSE 4.6 mph - N/A   Clear
11:55 AM 73.4 °F 53.6 °F 50% 30.28 in 10.0 mi SE 6.9 mph - N/A   Clear
12:15 PM 75.2 °F 51.8 °F 44% 30.28 in 10.0 mi SE 6.9 mph - N/A   Clear
12:35 PM 75.2 °F 51.8 °F 44% 30.27 in 10.0 mi SSE 6.9 mph - N/A   Clear
12:55 PM 75.2 °F 51.8 °F 44% 30.27 in 10.0 mi SE 8.1 mph - N/A   Clear
1:15 PM 75.2 °F 51.8 °F 44% 30.26 in 10.0 mi SE 9.2 mph - N/A   Clear
1:35 PM 75.2 °F 50.0 °F 41% 30.25 in 10.0 mi South 8.1 mph - N/A   Clear
1:55 PM 77.0 °F 48.2 °F 36% 30.25 in 10.0 mi SSE 8.1 mph - N/A   Clear
2:15 PM 77.0 °F 51.8 °F 41% 30.24 in 10.0 mi South 10.4 mph - N/A   Clear
2:35 PM 78.8 °F 50.0 °F 36% 30.24 in 10.0 mi ESE 4.6 mph - N/A   Clear
2:55 PM 78.8 °F 48.2 °F 34% 30.23 in 10.0 mi South 5.8 mph - N/A   Clear
3:15 PM 77.0 °F 48.2 °F 36% 30.23 in 10.0 mi SE 10.4 mph - N/A   Clear
3:35 PM 78.8 °F 50.0 °F 36% 30.22 in 10.0 mi SSE 4.6 mph - N/A   Clear
3:55 PM 78.8 °F 48.2 °F 34% 30.22 in 10.0 mi SSE 6.9 mph - N/A   Clear
4:15 PM 78.8 °F 51.8 °F 39% 30.22 in 10.0 mi South 3.5 mph - N/A   Clear
4:55 PM 78.8 °F 48.2 °F 34% 30.21 in 10.0 mi SE 3.5 mph - N/A   Clear
5:15 PM 78.8 °F 51.8 °F 39% 30.21 in 10.0 mi SE 4.6 mph - N/A   Clear
5:35 PM 75.2 °F 50.0 °F 41% 30.21 in 10.0 mi SSW 4.6 mph - N/A   Clear
5:55 PM 75.2 °F 53.6 °F 47% 30.21 in 10.0 mi Calm Calm - N/A   Clear
6:15 PM 73.4 °F 51.8 °F 47% 30.21 in 10.0 mi Calm Calm - N/A   Clear
6:35 PM 71.6 °F 57.2 °F 60% 30.21 in 10.0 mi Calm Calm - N/A   Clear
6:55 PM 69.8 °F 55.4 °F 60% 30.21 in 10.0 mi Calm Calm - N/A   Clear
7:15 PM 64.4 °F 53.6 °F 68% 30.21 in 10.0 mi NE 6.9 mph - N/A   Clear
7:35 PM 62.6 °F 53.6 °F 72% 30.21 in 10.0 mi ENE 6.9 mph - N/A   Clear
7:55 PM 60.8 °F 53.6 °F 77% 30.22 in 10.0 mi ENE 8.1 mph - N/A   Clear
8:15 PM 60.8 °F 53.6 °F 77% 30.22 in 10.0 mi East 6.9 mph - N/A   Clear
8:35 PM 60.8 °F 53.6 °F 77% 30.22 in 10.0 mi ENE 5.8 mph - N/A   Clear
8:55 PM 60.8 °F 51.8 °F 72% 30.22 in 10.0 mi ENE 4.6 mph - N/A   Clear
9:15 PM 59.0 °F 51.8 °F 77% 30.23 in 10.0 mi ENE 4.6 mph - N/A   Clear
9:35 PM 59.0 °F 51.8 °F 77% 30.23 in 10.0 mi East 4.6 mph - N/A   Clear
9:55 PM 57.2 °F 51.8 °F 82% 30.24 in 10.0 mi ENE 5.8 mph - N/A   Clear
10:15 PM 57.2 °F 51.8 °F 82% 30.24 in 10.0 mi East 5.8 mph - N/A   Clear
10:35 PM 57.2 °F 51.8 °F 82% 30.24 in 10.0 mi East 5.8 mph - N/A   Clear
10:55 PM 57.2 °F 51.8 °F 82% 30.24 in 10.0 mi ESE 3.5 mph - N/A   Clear
11:15 PM 55.4 °F 51.8 °F 88% 30.24 in 10.0 mi ESE 4.6 mph - N/A   Clear
11:35 PM 57.2 °F 51.8 °F 82% 30.24 in 10.0 mi SE 5.8 mph - N/A   Clear
11:55 PM 55.4 °F 50.0 °F 82% 30.24 in 10.0 mi ESE 4.6 mph - N/A   Clear